#timestamp,LO_Frequency,Hit,StdDev 
1609830015.3,286047000.1,P
1609830035.1,286046999.8,P
1609830055.8,286047002.6,P
1609830075.7,286047002.7,N
1609830095.5,286046999.8,N
1609830115.4,286046999.7,N
1609830135.2,286047000.1,N
1609830155.0,286046999.8,N
1609830155.9,286046999.8,N
1609830175.8,286047000.2,N
1609830195.6,286046999.8,N
1609830215.5,286047000.2,N
1609830235.3,286047000.1,N
1609830255.1,286047002.5,N
1609830275.9,286046999.9,N
1609830295.7,286047002.8,N
1609830315.6,286047000.1,N
1609830335.4,286046999.8,N
1609830355.2,286047002.8,N
1609830375.1,286046999.8,N
1609830376.0,286046999.8,N
1609830395.8,286046999.8,N
1609830415.6,286047002.8,N
1609830435.5,286047002.2,N
1609830455.3,286047002.1,N
1609830475.2,286047002.3,N
1609830495.9,286047002.6,N
1609830515.7,286047002.7,N
1609830535.6,286047002.7,N
1609830555.4,286047002.6,N
1609830575.3,286047000.1,N
1609830595.1,286047001.6,N
1609830596.0,286047001.6,N
1609830615.8,286047001.6,N
1609830635.7,286047002.4,N
1609830655.5,286047002.4,N
1609830675.3,286047002.3,N
1609830695.2,286047002.6,N
1609830715.0,286047002.2,N
1609830715.9,286047002.2,N
1609830735.8,286047002.1,N
1609830755.6,286047001.6,N
1609830775.4,286047002.0,N
1609830795.3,286047004.1,Y
1609830815.1,286046999.7,P
1609830835.9,286047000.0,N
1609830855.7,286047001.1,N
1609830875.5,286047002.4,N
1609830895.4,286047002.8,N
1609830915.2,286047002.4,N
1609830935.0,286047002.7,N
1609830935.9,286047002.7,N
1609830955.8,286046999.7,N
1609830975.6,286047002.0,N
1609830995.5,286047002.3,N
1609831015.3,286047002.3,N
1609831035.1,286047002.4,N
1609831055.9,286047002.3,N
1609831075.7,286047002.3,N
1609831095.6,286047002.5,N
1609831115.4,286047002.1,N
1609831135.2,286047002.0,N
1609831155.1,286047002.7,N
1609831156.0,286047002.7,N
1609831175.8,286047002.8,N
1609831195.7,286047002.3,N
1609831215.5,286047002.6,N
1609831235.3,286047002.1,N
1609831255.2,286047001.6,N
1609831275.0,286047002.4,N
1609831275.9,286047002.4,N
1609831295.7,286047002.8,Y
1609831315.6,286047001.0,P
1609831335.4,286046998.4,P
1609831355.3,286046999.4,N
1609831375.1,286046998.3,N
1609831395.8,286046998.8,N
1609831415.7,286046998.4,N
1609831435.5,286046999.3,N
1609831455.4,286046998.2,N
1609831475.2,286046998.7,N
1609831495.0,286046997.0,N
1609831495.9,286046997.0,N
1609831515.8,286046999.5,N
1609831535.6,286046999.1,N
1609831555.4,286046998.4,N
1609831575.3,286046998.5,N
1609831595.1,286046998.8,N
1609831615.9,286046998.6,N
1609831635.7,286046998.4,N
1609831655.5,286046998.4,N
1609831675.4,286046999.0,N
1609831695.2,286046998.1,N
1609831715.1,286046998.7,N
1609831716.0,286046998.7,N
1609831735.8,286046998.6,N
1609831755.6,286046998.3,N
1609831775.5,286046998.7,N
1609831795.3,286046998.2,N
1609831815.1,286047001.1,N
1609831835.9,286047000.5,N
1609831855.7,286047001.2,N
1609831875.6,286047000.8,N
1609831895.4,286047001.1,N
1609831915.2,286047001.2,N
1609831935.1,286047000.7,N
1609831936.0,286047000.7,N
1609831955.8,286047001.1,N
1609831975.7,286046998.7,N
1609831995.5,286046998.3,N
1609832015.3,286046998.1,N
1609832035.2,286047001.2,N
1609832055.0,286046998.2,N
1609832055.9,286046998.2,N
1609832075.8,286046998.5,N
1609832095.6,286047000.8,N
1609832115.4,286046998.7,N
1609832135.3,286047000.8,N
1609832155.1,286047001.1,N
1609832175.8,286047000.9,N
1609832195.7,286047000.7,N
1609832215.5,286047000.0,N
1609832235.4,286047000.9,N
1609832255.2,286047000.8,N
1609832275.0,286047000.4,N
1609832275.9,286047000.4,N
1609832295.8,286047000.5,N
1609832315.6,286047000.7,N
1609832335.5,286047001.2,N
1609832355.3,286047000.8,N
1609832375.1,286046998.4,N
1609832395.9,286046998.6,N
1609832415.7,286047000.8,N
1609832435.5,286047000.5,N
1609832455.4,286046998.7,N
1609832475.2,286046998.3,N
1609832495.1,286046998.6,N
1609832496.0,286046998.6,N
1609832515.8,286046999.3,N
1609832535.6,286046998.9,N
1609832555.5,286046998.6,N
1609832575.3,286046998.8,N
1609832595.2,286046998.7,N
1609832615.9,286046999.1,N
1609832635.7,286046999.1,N
1609832655.6,286046996.5,Y
1609832675.4,286046999.6,P
1609832695.2,286046999.3,P
1609832715.1,286046997.0,P
1609832716.0,286046997.0,N
1609832735.8,286046997.0,N
1609832755.7,286046996.6,N
1609832775.5,286046996.5,N
1609832795.3,286046999.1,N
1609832815.2,286046999.3,N
1609832835.0,286046997.0,N
1609832835.9,286046997.0,N
1609832855.8,286046998.8,N
1609832875.6,286046999.1,N
1609832895.4,286046999.3,N
1609832915.3,286047002.4,N
1609832935.1,286047000.9,N
1609832955.9,286047000.7,N
1609832975.7,286046998.5,N
1609832995.5,286046996.5,N
1609833015.4,286046999.2,N
1609833035.2,286046999.5,N
1609833055.0,286046996.5,N
1609833055.9,286046996.5,N
1609833075.8,286046999.3,N
1609833095.6,286046998.6,N
1609833115.5,286046998.7,N
1609833135.3,286046998.8,N
1609833155.1,286046998.2,N
1609833175.9,286046998.4,N
1609833195.7,286046998.9,N
1609833215.6,286046998.9,N
1609833235.4,286046999.1,N
1609833255.2,286046998.5,N
1609833275.1,286046999.0,N
1609833276.0,286046999.0,N
1609833295.8,286046998.9,N
1609833315.6,286046998.7,N
1609833335.5,286046998.7,N
1609833355.3,286046998.7,N
1609833375.2,286046998.8,N
1609833395.9,286046999.6,N
1609833415.7,286046997.0,N
1609833435.6,286046999.5,N
1609833455.4,286046999.5,N
1609833475.3,286046999.0,N
1609833495.1,286046999.1,N
1609833496.0,286046999.1,N
1609833515.8,286046999.1,N
1609833535.7,286046996.8,Y
1609833555.5,286046998.1,P
1609833575.4,286046998.5,P
1609833595.2,286047000.8,P
